#timestamp,LO_Frequency,Hit 
1500368415.0,286045856.4,N
1500368415.9,286045856.4,N
1500368435.8,286045856.0,N
1500368455.6,286045857.1,N
1500368475.4,286045854.5,N
1500368495.3,286045855.6,N
1500368515.1,286045852.5,N
1500368535.9,286045853.0,N
1500368555.7,286045853.4,N
1500368575.5,286045853.7,N
1500368595.4,286045853.4,N
1500368615.2,286045853.1,N
1500368635.0,286045852.9,N
1500368635.9,286045852.9,N
1500368655.8,286045855.3,N
1500368675.6,286045855.3,N
1500368695.5,286045854.3,N
1500368715.3,286045854.6,N
1500368735.1,286045855.2,N
1500368755.9,286045855.6,N
1500368775.7,286045855.1,N
1500368795.6,286045854.4,N
1500368815.4,286045855.5,N
1500368835.2,286045852.9,N
1500368855.1,286045855.0,N
1500368856.0,286045855.0,N
1500368875.8,286045855.2,N
1500368895.6,286045855.3,N
1500368915.5,286045855.4,N
1500368935.3,286045857.1,N
1500368955.2,286045856.9,N
1500368975.9,286045856.5,N
1500368995.7,286045857.2,N
1500369015.6,286045857.0,N
1500369035.4,286045856.1,N
1500369055.2,286045856.3,N
1500369075.1,286045855.9,N
1500369076.0,286045855.9,N
1500369095.8,286045856.9,N
1500369115.7,286045854.5,N
1500369135.5,286045856.5,N
1500369155.3,286045858.5,N
1500369175.2,286045855.9,N
1500369195.0,286045858.8,N
1500369195.9,286045858.8,N
1500369215.8,286045858.2,N
1500369235.6,286045856.3,N
1500369255.4,286045856.3,N
1500369275.3,286045856.2,N
1500369295.1,286045855.9,N
1500369315.8,286045858.7,N
1500369335.7,286045858.2,N
1500369355.5,286045858.7,N
1500369375.4,286045855.7,N
1500369395.2,286045858.4,N
1500369415.0,286045858.7,N
1500369415.9,286045858.7,N
1500369435.8,286045858.7,N
1500369455.6,286045858.0,N
1500369475.4,286045857.4,N
1500369495.3,286045858.0,N
1500369515.1,286045857.4,N
1500369535.9,286045860.3,N
1500369555.7,286045859.9,N
1500369575.6,286045858.6,N
1500369595.4,286045857.7,N
1500369615.2,286045858.2,N
1500369635.1,286045858.3,N
1500369636.0,286045858.3,N
1500369655.8,286045857.9,N
1500369675.6,286045857.4,N
1500369695.5,286045858.0,N
1500369715.3,286045858.1,N
1500369735.2,286045857.9,N
1500369755.9,286045858.3,N
1500369775.7,286045858.0,N
1500369795.6,286045857.5,N
1500369815.4,286045858.5,N
1500369835.2,286045858.8,N
1500369855.1,286045857.5,N
1500369856.0,286045857.5,N
1500369875.8,286045857.5,N
1500369895.7,286045860.2,N
1500369915.5,286045860.3,N
1500369935.3,286045860.2,N
1500369955.2,286045857.8,N
1500369975.0,286045859.7,N
1500369975.9,286045859.7,N
1500369995.8,286045860.0,N
1500370015.6,286045859.8,N
1500370035.4,286045860.3,N
1500370055.3,286045860.1,N
1500370075.1,286045859.7,N
1500370095.8,286045859.7,N
1500370115.7,286045858.9,N
1500370135.5,286045859.1,N
1500370155.4,286045859.0,N
1500370175.2,286045858.9,N
1500370195.0,286045861.9,N
1500370195.9,286045861.9,N
1500370215.8,286045859.2,N
1500370235.6,286045859.9,N
1500370255.5,286045859.1,N
1500370275.3,286045859.3,N
1500370295.1,286045859.1,N
1500370315.9,286045860.1,N
1500370335.7,286045859.6,N
1500370355.5,286045861.8,N
1500370375.4,286045859.0,N
1500370395.2,286045859.1,N
1500370415.1,286045861.3,N
1500370416.0,286045861.3,N
1500370435.8,286045861.7,N
1500370455.6,286045861.2,N
1500370475.5,286045861.3,N
1500370495.3,286045861.4,N
1500370515.1,286045861.5,N
1500370535.9,286045862.0,N
1500370555.7,286045859.1,N
1500370575.6,286045859.2,N
1500370595.4,286045861.7,N
1500370615.2,286045859.1,N
1500370635.1,286045861.8,N
1500370636.0,286045861.8,N
1500370655.8,286045860.8,N
1500370675.7,286045859.0,N
1500370695.5,286045858.9,N
1500370715.3,286045861.6,N
1500370735.2,286045861.5,N
1500370755.0,286045862.0,N
1500370755.9,286045862.0,N
1500370775.7,286045860.5,N
1500370795.6,286045863.2,N
1500370815.4,286045860.5,N
1500370835.3,286045861.0,N
1500370855.1,286045861.2,N
1500370856.0,286045861.2,N
1500370875.8,286045861.1,N
1500370895.7,286045860.7,N
1500370915.5,286045863.5,N
1500370935.4,286045860.5,N
1500370955.2,286045862.4,N
1500370975.0,286045862.9,N
1500370975.9,286045862.9,N
1500370995.8,286045865.1,N
1500371015.6,286045862.6,N
1500371035.4,286045862.7,N
1500371055.3,286045861.4,N
1500371075.1,286045859.0,N
1500371095.9,286045858.9,N
1500371115.7,286045860.8,N
1500371135.5,286045858.9,N
1500371155.4,286045861.4,N
1500371175.2,286045860.9,N
1500371195.1,286045861.3,N
1500371196.0,286045861.3,N
1500371215.8,286045863.0,N
1500371235.6,286045863.2,N
1500371255.5,286045863.2,N
1500371275.3,286045862.4,N
1500371295.1,286045864.8,N
1500371315.9,286045862.9,N
1500371335.7,286045863.0,N
1500371355.6,286045862.5,N
1500371375.4,286045865.1,N
1500371395.2,286045862.2,N
1500371415.1,286045863.4,N
1500371416.0,286045863.4,N
1500371435.8,286045862.9,N
1500371455.6,286045862.3,N
1500371475.5,286045862.1,N
1500371495.3,286045862.1,N
1500371515.2,286045863.4,N
1500371535.9,286045862.8,N
1500371555.7,286045862.1,N
1500371575.6,286045862.2,N
1500371595.4,286045863.4,N
1500371615.3,286045863.5,N
1500371635.1,286045861.1,N
1500371636.0,286045861.1,N
1500371655.8,286045861.2,N
1500371675.7,286045863.2,N
1500371695.5,286045862.8,N
1500371715.3,286045863.6,N
1500371735.2,286045862.9,N
1500371755.0,286045863.3,N
1500371755.9,286045863.3,N
1500371775.8,286045863.5,N
1500371795.6,286045861.8,N
1500371815.4,286045861.7,N
1500371835.3,286045861.9,N
1500371855.1,286045861.6,N
1500371875.9,286045859.3,N
1500371895.7,286045859.5,N
1500371915.5,286045861.8,N
1500371935.4,286045861.9,N
1500371955.2,286045861.9,N
1500371975.0,286045859.3,N
1500371975.9,286045859.3,N
1500371995.8,286045861.3,N
